Location: Gwatt
(46.7204°N, 7.6223°E)
Time: 11:53:21
(UTC+00:00)

Transit 2A - Pass Details

Date: 18 May 2021
Orbit: 601 x 958 km, 66.7° (Epoch: 15 June)

Event Time Altitude Azimuth Distance (km) Brightness Sun altitude
Exits shadow 02:13:44 - 280° (W) 2,608 8.5 -13.7°
Reaches altitude 10° 02:16:32 10° 306° (NW) 1,955 8.1 -13.4°
Maximum altitude 02:18:15 12° 329° (NNW) 1,820 8.2 -13.2°
Drops below altitude 10° 02:19:59 10° 353° (N) 1,954 8.7 -13.0°
Sets 02:23:41 0° 25° (NNE) 2,880 10.6 -12.6°
